Regional Weather Roundup
Issued by NWS

Home | Current Version | Previous Version | Graphics & Text | Print | Product List | Glossary On
Versions: 1 2 3 4 5 6 7 8 9 10 11 12 13 14 15 16 17 18 19 20 21 22 23 24 25 26 27 28 29 30 31 32 33 34 35 36 37 38 39 40 41 42 43 44 45 46 47 48 49 50
000
ASUS43 KBIS 300210
RWRND

NORTH DAKOTA REGIONAL WEATHER ROUNDUP
NATIONAL WEATHER SERVICE BISMARCK ND
900 PM CDT FRI JUL 29 2016

NOTE: "FAIR" INDICATES FEW OR NO CLOUDS BELOW 12,000 FEET WITH NO
SIGNIFICANT WEATHER AND/OR OBSTRUCTIONS TO VISIBILITY.


NDZ001>003-009>011-017-300300-
NORTHWEST NORTH DAKOTA

CITY           SKY/WX    TMP DP  RH WIND       PRES   REMARKS
WILLISTON      CLEAR     77  50  38 E6        29.96F
MINOT          CLOUDY    78  60  53 SE3       29.96S
MINOT AFB      CLEAR     73  61  65 NW2       29.94F
$$

NDZ018>021-031>035-040>046-300300-
SOUTHWEST NORTH DAKOTA

CITY           SKY/WX    TMP DP  RH WIND       PRES   REMARKS
BISMARCK       PTCLDY    75  62  64 S8        29.98R
DICKINSON      CLEAR     70  59  68 E8        29.96S
GARRISON         N/A     71  62  73 E3        29.97S
HETTINGER ARPT PTCLDY    78  52  40 E9        29.99R
$$

NDZ004>008-012>016-024-026-027-054-300300-
NORTHEAST NORTH DAKOTA

CITY           SKY/WX    TMP DP  RH WIND       PRES   REMARKS
GRAND FORKS    PTCLDY    75  56  51 E5        29.98R
GRND FRKS AFB  PTCLDY    73  55  54 S2        29.99S
DEVILS LAKE    CLOUDY    68  61  78 SW3       30.00S
$$

NDZ022-023-025-028>030-036>039-047>053-300300-
SOUTHEAST NORTH DAKOTA

CITY           SKY/WX    TMP DP  RH WIND       PRES   REMARKS
FARGO          CLEAR     72  62  71 CALM      29.99S
JAMESTOWN      MOCLDY    69  63  81 SE5       30.00R
$$




USA.gov is the U.S. government's official web portal to all federal, state and local government web resources and services.